QZS-3 (MICHIBIKI-3)

Last updated on Thu Nov 21 2024 00:02:43 GMT+0000 (Coordinated Universal Time)

1 42917U 17048A 24325.57226167 -.00000347 00000+0 00000+0 0 9998 2 42917 0.0559 193.0667 0002017 50.6524 149.4433 1.00271175 26503
UTC large
Height (km)
Speed (km/s)
/
Latitude / Longitude
Inclination (degrees)
Orbital Period (minutes)
Azimuth
Elevation
Range (km)
Doppler Factor

Next 0 passes for location: London (51.5072 / 0.1276)

Sorry there are no passes over London.